This is the latest recevied weather packets stored in our database for station/object N6WDO. If no packets are shown the sender has not sent any weather packets the latest 10 day(s).
| Time | Temp. | Humidity | Pressure | Rain* | Wind** | Luminosity | Snow |
|---|---|---|---|---|---|---|---|
| 1777689626 | 21.11° C | 59% | 1013.7 hPa | 0 mm | - | 5 W/m² | - |
| 1777689324 | 21.11° C | 57% | 1013.9 hPa | 0 mm | - | 8 W/m² | - |
| 1777689021 | 21.11° C | 57% | 1013.8 hPa | 0 mm | - | 12 W/m² | - |
| 1777688717 | 21.67° C | 56% | 1013.6 hPa | 0 mm | - | 15 W/m² | - |
| 1777688415 | 21.67° C | 56% | 1013.6 hPa | 0 mm | - | 18 W/m² | - |
| 1777688112 | 22.22° C | 56% | 1013.7 hPa | 0 mm | - | 20 W/m² | - |
| 1777687809 | 22.78° C | 54% | 1013.5 hPa | 0 mm | - | 23 W/m² | - |
| 1777687507 | 23.33° C | 53% | 1013.7 hPa | 0 mm | - | 26 W/m² | - |
| 1777687203 | 23.89° C | 52% | 1013.6 hPa | 0 mm | - | 29 W/m² | - |
| 1777686901 | 24.44° C | 49% | 1013.4 hPa | 0 mm | - | 31 W/m² | - |
| 1777686597 | 24.44° C | 45% | 1013.7 hPa | 0 mm | - | 32 W/m² | - |
| 1777686294 | 25° C | 44% | 1013.8 hPa | 0 mm | - | 34 W/m² | - |
| 1777685991 | 25° C | 45% | 1013.7 hPa | 0 mm | - | 38 W/m² | - |
| 1777685686 | 25° C | 46% | 1013.6 hPa | 0 mm | - | 40 W/m² | - |
| 1777685383 | 25° C | 46% | 1013.7 hPa | 0 mm | - | 44 W/m² | - |
| 1777685081 | 25.56° C | 47% | 1013.7 hPa | 0 mm | - | 46 W/m² | - |
| 1777684778 | 25.56° C | 45% | 1013.7 hPa | 0 mm | - | 47 W/m² | - |
| 1777684474 | 25.56° C | 48% | 1013.6 hPa | 0 mm | - | 45 W/m² | - |
| 1777684171 | 25.56° C | 46% | 1013.7 hPa | 0 mm | - | 42 W/m² | - |
| 1777683868 | 26.11° C | 44% | 1013.7 hPa | 0 mm | - | 42 W/m² | - |
| 1777683564 | 26.67° C | 45% | 1013.6 hPa | 0 mm | - | 98 W/m² | - |
| 1777683262 | 26.67° C | 43% | 1013.7 hPa | 0 mm | - | 53 W/m² | - |
| 1777682960 | 26.67° C | 42% | 1013.5 hPa | 0 mm | - | 85 W/m² | - |
| 1777682655 | 27.22° C | 42% | 1013.8 hPa | 0 mm | - | 63 W/m² | - |
| 1777682353 | 27.78° C | 41% | 1013.6 hPa | 0 mm | - | 68 W/m² | - |
* Rain latest hour (hover to see other rain measurements)
** Current wind speed in m/s (hover to see current wind gust speed)